This demonstration page uses our WeatherBlox Daily Observations layout. Learn more.

Left ArrowRight Arrow

41.55636, -103.73856

Hourly Observations for April 22, 2021

Temp ( °F °C ) Dew Point ( °F °C ) Humidity (%) Winds ( mph kmh ) Pressure ( in mb ) Visibility ( mi km ) Precip ( " mm )
3:58 am 03:58 Clear 28 -2.5 25 -4.1 89 89 S 16 26 29.97 1015 10 16.0934 0 0
4:58 am 04:58 Mostly Clear 28 -2.1 24 -4.2 86 86 S 16 26 29.94 1014 10 16.0934 0 0
5:58 am 05:58 Mostly Cloudy 28 -2.2 25 -4.1 87 87 S 15 24 29.91 1013 10 16.0934 0 0
6:58 am 06:58 Mostly Cloudy with Light Snow Showers 28 -2.5 25 -4 90 90 S 10 17 29.91 1013 10 16.0934 0 0
7:58 am 07:58 Mostly Cloudy 27 -2.6 25 -4.1 90 90 S 14 22 29.91 1013 10 16.0934 0 0
8:59 am 08:59 Mostly Cloudy 28 -2.2 25 -3.7 90 90 S 9 15 29.9 1013 10 16.0934 0 0
9:56 am 09:56 Mostly Cloudy 31 -0.7 27 -2.7 87 87 SSW 6 9 29.87 1012 10 16.0934 0 0
10:56 am 10:56 Mostly Cloudy 35 1.4 29 -1.8 80 80 SSW 6 9 29.88 1012 10 16.0934 0 0
11:58 am 11:58 Mostly Sunny 42 5.3 29 -1.9 60 60 W 5 7 29.82 1010 10 16.0934 0 0
12:58 pm 12:58 Sunny 50 9.9 22 -5.8 33 33 NW 15 24 29.75 1007 10 16.0934 0 0
1:58 pm 13:58 Sunny 53 11.5 15 -9.3 23 23 NNW 8 13 29.75 1007 10 16.0934 0 0
2:58 pm 14:58 Sunny 54 12.1 19 -7.4 25 25 N 9 15 29.74 1007 10 16.0934 0 0
3:58 pm 15:58 Sunny 55 12.8 18 -7.6 24 24 NW 9 15 29.72 1007 10 16.0934 0 0
4:58 pm 16:58 Sunny 55 12.9 18 -7.7 23 23 NW 6 9 29.72 1007 10 16.0934 0 0
5:56 pm 17:56 Sunny 54 12.4 19 -7.2 25 25 NE 8 13 29.74 1007 10 16.0934 0 0
6:56 pm 18:56 Sunny 52 11.2 20 -6.6 28 28 Calm 29.76 1008 10 16.0934 0 0
7:56 pm 19:56 Clear 49 9.4 19 -7.1 31 31 S 5 7 29.79 1009 10 16.0934 0 0
8:58 pm 20:58 Clear 42 5.7 19 -7 40 40 SW 6 9 29.83 1010 10 16.0934 0 0
9:58 pm 21:58 Clear 37 2.5 22 -5.5 56 56 W 6 9 29.86 1011 10 16.0934 0 0
10:58 pm 22:58 Clear 40 4.7 22 -5.4 48 48 W 3 6 29.82 1010 10 16.0934 0 0
11:58 pm 23:58 Clear 35 1.8 21 -6 57 57 NW 5 7 29.83 1010 10 16.0934 0 0

Powered by AerisWeather